Find Kuiper-00166

NORAD ID: 65779 Int'l Des: 2025-217 Owner: KUIP Country: US Constellation: amazon-leo operational
LEOCIRCULAR

現在のビュー

3D地球を読み込み中...

About Kuiper-00166

Kuiper-00166 (NORAD 65779) is a amazon-leo constellation satellite launched Sep 25, 2025 by KUIP of US. It operates in LEO, CIRCULAR orbit with a mass of 490.00 kg.

次回通過

Passes for default location (London). Set your location on the main map for personalized predictions.

高度履歴

Loading altitude history...

軌道要素

1 65779U 25217T 26263.46087262 -.00002928 00000-0 -35522-3 0 9998
2 65779 51.9033 241.8886 0000555 100.9787 259.1238 14.79939173 53990
Epoch: Sep 20, 2026 • Age: 13 hours

現在のステータス

高度 631.6 km
遠地点 / 近地点 N/A
速度 7.55 km/s
衛星直下点 34.26°N, 91.82°W
打ち上げ日 Sep 25, 2025
運用期間 0.9 years
タイプ internet

技術仕様

分類 Payload
質量 490.00 kg
形状 ? Box + 2 pan
製造者 KUIP
バスタイプ Kuiper
フェーズステータス In Orbit
所有者/国 KUIP/US

Most Searched